NOAA 17 DEB

Satellite information

Favourite Embed

Satellite Type and Status

DEBRISIN ORBIT

Key statistics

Satellite NOAA 17 DEB at a glance.

Uptime

8574

Days in orbit

Revolutions

≈ 14.5

Per day

Orbit

SSO

Sun Synchronous Orbit

Inclination

98.8

Latest

Satellite identification and parameters

Extended collection of information and parameters for NOAA 17 DEB.

Object identification

Identified? True

Debris? True

Object name: NOAA 17 DEB

International designator: 2002-032Z

Object number (NORAD): 48184

Object ID (CCSDS): 48184

Country: UNITED STATES OF AMERICA (US)

Current information (Y/N): Y

RCS size: SMALL

Orbital parameters

Period: 99.371 minutes

Inclination: 98.825 deg

SMA: 7106.656 km

Apoapsis: 738.38 km

Periapsis: 718.663 km

RAAN: 331.5919 deg

Eccentricy: 0.0013872

Argument of periapsis: 101.7796 deg

Mean anomaly: 258.4954 deg

Mean motion: 14.49121507 rev/day

Mean motion (dot): 0.00016133 rev/day2

B* drag term: 0.0042412918 1/REarth

Two-line elements (TLE)

Creation date: Dec. 11, 2025, 7:14 p.m.

Reference frame: TEME

Reference center: EARTH

Epoch: Dec. 11, 2025, 10:20 a.m. UTC

TLE line 0: 0 NOAA 17 DEB

TLE line 1: 1 48184U 02032Z 25345.43063043 .00016133 00000-0 42413-2 0 9994

TLE line 2: 2 48184 98.8250 331.5919 0013872 101.7796 258.4954 14.49121507245554

Live tracking on map

Real-time ground track for satellite NOAA 17 DEB.

In-orbit conjunctions

A list of the most updated potential collisions computed for object NOAA 17 DEB.

Target Orbit TCA Probability of collision Miss distance Type
COSMOS 1140 LEO 2025-02-23 15:50:53 0.000183164 284.0 (m) PAYLOAD
FENGYUN 1C DEB SSO 2024-09-25 13:04:48 0.0008682436 34.0 (m) DEBRIS
COSMOS 1354 LEO 2024-09-15 08:54:31 0.0003518656 99.0 (m) PAYLOAD

Associated space launch

NOAA M carried weather imagers and microwave and infrared sounders, as well as a SARSAT search-and-rescue package. It had an on-orbit mass of 1475 kg.

NOAA 17 DEB was lifted into orbit during the mission ‘Titan II SLV | NOAA 17’, on board a Titan II SLV space rocket.

The launch took place on June 24, 2002, 6:23 p.m. from Space Launch Complex 4W.

For more information about the launch, click the button.

Launch to space Titan II SLV | NOAA 17
Titan II SLV | NOAA 17

Agency: N/A

Status: Launch Successful

Launch date: June 24, 2002, 6:23 p.m. UTC

Rocket: Titan II SLV

Launch pad: Space Launch Complex 4W

Location: Vandenberg SFB, CA, USA

...

Latest news about this satellite

There are no fresh news available about this satellite. Check back as we update our databases every day.


Newsletter sign-up

Weekly statistics, charts and insights to help you stay on top of the space industry.